When you browse on this site, cookies collect data to enhance your experience and personalize the content and advertising you see.
Visit our Privacy Policy to learn more. By continuing to use the site, you agree to this use of cookies and data.
  • In United Kingdom
  • List of Countries
  • For 7 days
  • Water Temperature
  • Satellite Maps
  • Weather Map
  • Weather Widgets
  • user-avatar
    Login

    Hourly Weather Szczecin

    Today, 18 July, Thursday

    Time Temperature Precipitation Wind Pressure Humidity
    00:00 +12°C° 0 mm 1 mps 757 mmHg 89%
    01:00 +12°C° 0 mm 1 mps 757 mmHg 90%
    02:00 +12°C° 0 mm 1 mps 757 mmHg 90%
    03:00 +12°C° 0 mm 1 mps 757 mmHg 91%
    04:00 +11°C° 0 mm 1 mps 757 mmHg 91%
    05:00 +13°C° 0 mm 1 mps 757 mmHg 83%
    06:00 +15°C° 0 mm 1 mps 757 mmHg 76%
    07:00 +18°C° 0 mm 1 mps 757 mmHg 65%
    08:00 +20°C° 0 mm 1 mps 757 mmHg 59%
    09:00 +21°C° 0 mm 1 mps 758 mmHg 52%
    10:00 +23°C° 0 mm 1 mps 758 mmHg 46%
    11:00 +24°C° 0 mm 1 mps 757 mmHg 45%
    12:00 +25°C° 0 mm 1 mps 757 mmHg 43%
    13:00 +25°C° 0 mm 2 mps 757 mmHg 41%
    14:00 +25°C° 0 mm 2 mps 757 mmHg 42%
    15:00 +25°C° 0 mm 2 mps 757 mmHg 42%
    16:00 +25°C° 0 mm 2 mps 757 mmHg 43%
    17:00 +24°C° 0 mm 2 mps 757 mmHg 49%
    18:00 +23°C° 0 mm 2 mps 756 mmHg 55%
    19:00 +21°C° 0 mm 2 mps 756 mmHg 62%
    20:00 +19°C° 0 mm 2 mps 756 mmHg 68%
    21:00 +18°C° 0 mm 2 mps 757 mmHg 75%
    22:00 +16°C° 0 mm 3 mps 757 mmHg 81%
    23:00 +16°C° 0 mm 3 mps 757 mmHg 81%

    Tomorrow, 19 July, Friday

    Time Temperature Precipitation Wind Pressure Humidity
    00:00 +16°C° 0 mm 2 mps 757 mmHg 81%
    01:00 +16°C° 0 mm 2 mps 757 mmHg 81%
    02:00 +16°C° 0 mm 2 mps 757 mmHg 77%
    03:00 +16°C° 0 mm 2 mps 757 mmHg 73%
    04:00 +17°C° 0 mm 2 mps 756 mmHg 69%
    05:00 +17°C° 0 mm 2 mps 757 mmHg 68%
    06:00 +18°C° 0 mm 2 mps 757 mmHg 67%
    07:00 +19°C° 0 mm 2 mps 757 mmHg 66%
    08:00 +20°C° 0 mm 2 mps 757 mmHg 65%
    09:00 +21°C° 0 mm 2 mps 757 mmHg 63%
    10:00 +23°C° 0 mm 2 mps 757 mmHg 62%
    11:00 +24°C° 0.1 mm 1 mps 757 mmHg 60%
    12:00 +25°C° 0.1 mm 1 mps 757 mmHg 58%
    13:00 +23°C° 0.1 mm 0 mps 757 mmHg 55%
    14:00 +26°C° 0.1 mm 1 mps 757 mmHg 54%
    15:00 +26°C° 0.1 mm 1 mps 757 mmHg 52%
    16:00 +27°C° 0.1 mm 1 mps 757 mmHg 51%
    17:00 +25°C° 0.2 mm 1 mps 757 mmHg 59%
    18:00 +24°C° 0.2 mm 1 mps 757 mmHg 67%
    19:00 +23°C° 0.2 mm 1 mps 757 mmHg 75%
    20:00 +22°C° 0 mm 1 mps 757 mmHg 80%
    21:00 +20°C° 0 mm 1 mps 758 mmHg 84%
    22:00 +19°C° 0 mm 1 mps 758 mmHg 89%
    23:00 +19°C° 0 mm 1 mps 758 mmHg 90%

    Day after tomorrow, 20 July, Saturday

    Time Temperature Precipitation Wind Pressure Humidity
    00:00 +18°C° 0 mm 1 mps 758 mmHg 92%
    01:00 +18°C° 0 mm 1 mps 758 mmHg 93%
    02:00 +18°C° 0 mm 1 mps 758 mmHg 94%
    03:00 +16°C° 0 mm 1 mps 758 mmHg 94%
    04:00 +16°C° 0 mm 1 mps 758 mmHg 94%
    05:00 +18°C° 0 mm 1 mps 759 mmHg 89%
    06:00 +20°C° 0 mm 1 mps 759 mmHg 84%
    07:00 +21°C° 0 mm 1 mps 759 mmHg 79%
    08:00 +23°C° 0 mm 1 mps 759 mmHg 72%
    09:00 +24°C° 0 mm 1 mps 759 mmHg 64%
    10:00 +26°C° 0 mm 1 mps 759 mmHg 56%
    11:00 +27°C° 0 mm 1 mps 759 mmHg 53%
    12:00 +27°C° 0 mm 2 mps 759 mmHg 51%
    13:00 +28°C° 0 mm 2 mps 758 mmHg 49%
    14:00 +29°C° 0 mm 2 mps 758 mmHg 48%
    15:00 +29°C° 0 mm 2 mps 758 mmHg 47%
    16:00 +29°C° 0 mm 3 mps 758 mmHg 46%
    17:00 +28°C° 0 mm 3 mps 757 mmHg 52%
    18:00 +27°C° 0 mm 3 mps 757 mmHg 57%
    19:00 +26°C° 0 mm 3 mps 757 mmHg 62%
    20:00 +25°C° 0.9 mm 2 mps 757 mmHg 70%
    21:00 +23°C° 0.9 mm 2 mps 757 mmHg 78%
    22:00 +20°C° 0.9 mm 2 mps 757 mmHg 86%
    23:00 +20°C° 0.8 mm 2 mps 757 mmHg 88%

    21 July, Sunday

    Time Temperature Precipitation Wind Pressure Humidity
    00:00 +20°C° 0.8 mm 2 mps 757 mmHg 91%
    01:00 +19°C° 0.8 mm 2 mps 757 mmHg 93%
    02:00 +19°C° 0 mm 2 mps 757 mmHg 94%
    03:00 +19°C° 0 mm 2 mps 757 mmHg 94%
    04:00 +18°C° 0 mm 2 mps 757 mmHg 95%
    05:00 +19°C° 0.6 mm 2 mps 757 mmHg 94%
    06:00 +20°C° 0.6 mm 1 mps 757 mmHg 92%
    07:00 +21°C° 0.6 mm 1 mps 758 mmHg 91%
    08:00 +23°C° 0.1 mm 2 mps 758 mmHg 82%
    09:00 +24°C° 0.1 mm 3 mps 758 mmHg 72%
    10:00 +26°C° 0.1 mm 3 mps 759 mmHg 63%
    11:00 +26°C° 0.2 mm 3 mps 759 mmHg 62%
    12:00 +27°C° 0.2 mm 3 mps 759 mmHg 60%
    13:00 +27°C° 0.2 mm 3 mps 759 mmHg 59%
    14:00 +27°C° 0.7 mm 3 mps 760 mmHg 63%
    15:00 +26°C° 0.7 mm 4 mps 760 mmHg 67%
    16:00 +26°C° 0.7 mm 4 mps 760 mmHg 70%
    17:00 +25°C° 0.3 mm 3 mps 760 mmHg 74%
    18:00 +24°C° 0.3 mm 2 mps 761 mmHg 78%
    19:00 +23°C° 0.3 mm 2 mps 761 mmHg 83%
    20:00 +21°C° 0 mm 2 mps 761 mmHg 86%
    21:00 +20°C° 0 mm 2 mps 762 mmHg 88%
    22:00 +19°C° 0 mm 2 mps 762 mmHg 91%
    23:00 +18°C° 0 mm 2 mps 762 mmHg 93%

    22 July, Monday

    Time Temperature Precipitation Wind Pressure Humidity
    00:00 +18°C° 0 mm 3 mps 762 mmHg 94%
    01:00 +17°C° 0 mm 3 mps 763 mmHg 95%
    02:00 +17°C° 0 mm 3 mps 763 mmHg 96%
    03:00 +16°C° 0 mm 3 mps 763 mmHg 97%
    04:00 +16°C° 0 mm 3 mps 763 mmHg 98%
    05:00 +17°C° 0 mm 3 mps 764 mmHg 96%
    06:00 +17°C° 0 mm 3 mps 764 mmHg 95%
    07:00 +17°C° 0 mm 4 mps 764 mmHg 93%
    08:00 +18°C° 0 mm 3 mps 765 mmHg 90%
    09:00 +19°C° 0 mm 3 mps 765 mmHg 87%
    10:00 +19°C° 0 mm 3 mps 765 mmHg 83%
    11:00 +20°C° 0 mm 3 mps 765 mmHg 80%
    12:00 +20°C° 0 mm 3 mps 765 mmHg 77%
    13:00 +21°C° 0 mm 3 mps 765 mmHg 73%
    14:00 +22°C° 0 mm 3 mps 765 mmHg 69%
    15:00 +24°C° 0 mm 3 mps 765 mmHg 65%
    16:00 +24°C° 0 mm 3 mps 765 mmHg 61%
    17:00 +22°C° 0 mm 3 mps 765 mmHg 64%
    18:00 +21°C° 0 mm 2 mps 765 mmHg 68%
    19:00 +20°C° 0 mm 2 mps 765 mmHg 71%
    20:00 +19°C° 0 mm 2 mps 766 mmHg 74%
    21:00 +18°C° 0 mm 2 mps 766 mmHg 77%
    22:00 +18°C° 0 mm 1 mps 766 mmHg 80%
    23:00 +16°C° 0 mm 1 mps 766 mmHg 81%

    23 July, Tuesday

    Time Temperature Precipitation Wind Pressure Humidity
    00:00 +16°C° 0 mm 1 mps 766 mmHg 82%
    01:00 +16°C° 0 mm 1 mps 766 mmHg 84%
    02:00 +15°C° 0 mm 1 mps 766 mmHg 85%
    03:00 +15°C° 0 mm 1 mps 766 mmHg 86%
    04:00 +15°C° 0 mm 1 mps 766 mmHg 87%
    05:00 +18°C° 0 mm 1 mps 766 mmHg 81%
    06:00 +19°C° 0 mm 1 mps 766 mmHg 75%
    07:00 +21°C° 0 mm 1 mps 766 mmHg 70%
    08:00 +22°C° 0 mm 1 mps 766 mmHg 64%
    09:00 +24°C° 0 mm 1 mps 766 mmHg 58%
    10:00 +26°C° 0 mm 1 mps 766 mmHg 52%
    11:00 +26°C° 0 mm 1 mps 765 mmHg 50%
    12:00 +27°C° 0 mm 2 mps 765 mmHg 47%
    13:00 +28°C° 0 mm 2 mps 765 mmHg 44%
    14:00 +28°C° 0 mm 2 mps 764 mmHg 45%
    15:00 +28°C° 0 mm 3 mps 764 mmHg 47%
    16:00 +28°C° 0 mm 3 mps 764 mmHg 48%
    17:00 +26°C° 0 mm 3 mps 764 mmHg 54%
    18:00 +25°C° 0 mm 2 mps 764 mmHg 60%
    19:00 +23°C° 0 mm 2 mps 763 mmHg 66%
    20:00 +21°C° 0 mm 2 mps 763 mmHg 68%
    21:00 +20°C° 0 mm 1 mps 763 mmHg 71%
    22:00 +19°C° 0 mm 1 mps 764 mmHg 74%
    23:00 +19°C° 0 mm 1 mps 764 mmHg 75%
    Show more